Regional Weather Roundup
Issued by NWS

Home | Current Version | Previous Version | Text Only | Print | Product List | Glossary Off
Versions: 1 2 3 4 5 6 7 8 9 10 11 12 13 14 15 16 17 18 19 20 21 22 23 24 25 26 27 28 29 30 31 32 33 34 35 36 37 38 39 40 41 42 43 44 45 46 47 48 49 50

011
ASUS43 KIND 100759
RWRIN

WEATHER ROUNDUP FOR INDIANA
NATIONAL WEATHER SERVICE INDIANAPOLIS IN
300 AM EST SAT DEC 10 2016

NOTE: "FAIR" INDICATES FEW OR NO CLOUDS BELOW 12,000 FEET WITH NO
SIGNIFICANT WEATHER AND/OR OBSTRUCTIONS TO VISIBILITY.

* - STATION DOES NOT REPORT WEATHER SUCH AS PRECIPITATION OR FOG.

+ - STATION NOT QUALITY CONTROLLED BY THE NATIONAL WEATHER SERVICE.
    USE DATA WITH CAUTION...ESPECIALLY DEWPOINT AND RELATIVE
    HUMIDITY OBSERVATIONS.

INZ001>003-010>013-019-020-100900-
NORTHWEST INDIANA

CITY           SKY/WX    TMP DP  RH WIND       PRES   REMARKS
GARY /AIRPORT/ CLOUDY    22  15  72 W6        30.52S WCI  15
KNOX *+        PTCLDY    19   0  42 W7        30.52R WCI  10
LA PORTE +     CLOUDY    19  13  79 SW7       30.51R WCI   9
MONTICELLO +   CLOUDY    23  11  62 W3        30.53R

$$

LMZ046-743>745-100900-
SOUTHERN LAKE MICHIGAN

STATION/POSITION TIME  TEMP    WIND        PRES    WAVE
                       AIR SEA DIR/SP/G            HT
                 (UTC) (F)     (DEG/KT/KT) (MB)    (FT)

$$

INZ004-005-014>016-021>024-100900-
NORTH CENTRAL INDIANA

CITY           SKY/WX    TMP DP  RH WIND       PRES   REMARKS
GOSHEN         CLOUDY    20  12  71 W14       30.48R WCI   7
SOUTH BEND     CLOUDY    19  13  77 SW10      30.49R WCI   7
WARSAW +       MOCLDY    19  12  73 W12       30.49R WCI   7

$$

INZ006>009-017-018-025>027-100900-
NORTHEAST INDIANA

CITY           SKY/WX    TMP DP  RH WIND       PRES   REMARKS
ANGOLA *+      CLOUDY    19  16  86 W8        30.44R WCI   9
FORT WAYNE     MOCLDY    19  12  74 W9        30.50R WCI   8
KENDALLVILLE + CLOUDY    20  14  78 W12       30.47R WCI   8

$$

INZ028-029-035-036-043>045-051>053-100900-
WEST CENTRAL INDIANA

CITY           SKY/WX    TMP DP  RH WIND       PRES   REMARKS
CRAWFORDSVL +  CLOUDY    19  17  88 SW6       30.53F WCI  11
GREENCASTLE +  CLOUDY    21  18  86 W3        30.54S
LAFAYETTE      CLOUDY    23  17  78 W9        30.54R WCI  13
TERRE HAUTE    CLOUDY    24  14  65 NW5       30.57R WCI  18

$$

INZ030>032-037>040-046>048-054>057-064-065-100900-
CENTRAL INDIANA

CITY           SKY/WX    TMP DP  RH WIND       PRES   REMARKS
FRANKFORT +    CLOUDY    26  18  72 W8        30.53S WCI  17
GREENWOOD *+   CLOUDY    23  17  79 W5        30.55R WCI  17
INDIANAPOLIS   CLOUDY    22  17  81 W9        30.54R WCI  12
-EAGLE CREEK   CLOUDY    22  16  78 W7        30.54R WCI  13
KOKOMO +       PTCLDY    21  15  78 W7        30.53R WCI  12
SHELBYVILLE    CLOUDY    24  16  71 W7        30.54R WCI  16
ZIONSVILLE +   CLOUDY    22  15  71 W7        30.53R WCI  14

$$

INZ033-034-041-042-049-050-058-059-100900-
EAST CENTRAL INDIANA

CITY           SKY/WX    TMP DP  RH WIND       PRES   REMARKS
MUNCIE         CLOUDY    23  14  68 W9        30.51R WCI  13

$$

INZ060-061-067>069-081>083-085>088-100900-
SOUTHWEST INDIANA

CITY           SKY/WX    TMP DP  RH WIND       PRES   REMARKS
EVANSVILLE     CLEAR     19  14  81 CALM      30.60S
HUNTINGBURG *+ CLOUDY    19  16  88 CALM      30.59R

$$

INZ062-063-066-070>080-084-089>092-100900-
SOUTH CENTRAL AND SOUTHEAST INDIANA

CITY           SKY/WX    TMP DP  RH WIND       PRES   REMARKS
BLOOMINGTON    CLOUDY    22  16  78 CALM      30.54S
MADISON *+     PTCLDY    23  18  80 CALM      30.58R
SEYMOUR +      CLOUDY    23  18  80 SW3       30.57R

$$





USA.gov is the U.S. government's official web portal to all federal, state and local government web resources and services.